Time,TemperatureF,DewpointF,PressureIn,WindDirection,WindDirectionDegrees,WindSpeedMPH,WindSpeedGustMPH,Humidity,HourlyPrecipIn,Conditions,Clouds,dailyrainin,SoftwareType,DateUTC
2013-03-07 00:03:00,28.7,27.0,30.28,ESE,108,2.0,6.0,94,0.00,,,0.00,weatherlink.com 1.10,2013-03-07 05:03:00,
2013-03-07 00:18:00,28.6,27.0,30.28,East,100,2.0,5.0,94,0.00,,,0.00,weatherlink.com 1.10,2013-03-07 05:18:00,
2013-03-07 00:33:00,28.6,27.0,30.28,East,101,1.0,5.0,94,0.00,,,0.00,weatherlink.com 1.10,2013-03-07 05:33:00,
2013-03-07 00:48:00,28.6,27.0,30.28,ESE,103,1.0,4.0,94,0.00,,,0.00,weatherlink.com 1.10,2013-03-07 05:48:00,
2013-03-07 01:03:00,28.6,27.0,30.29,East,101,2.0,3.0,94,0.00,,,0.00,weatherlink.com 1.10,2013-03-07 06:03:00,
2013-03-07 01:18:00,28.6,27.0,30.28,ESE,117,3.0,4.0,94,0.00,,,0.00,weatherlink.com 1.10,2013-03-07 06:18:00,
2013-03-07 01:33:00,28.6,27.0,30.28,ESE,108,3.0,4.0,94,0.00,,,0.00,weatherlink.com 1.10,2013-03-07 06:33:00,
2013-03-07 01:48:00,28.7,27.0,30.29,ESE,113,2.0,4.0,94,0.00,,,0.00,weatherlink.com 1.10,2013-03-07 06:48:00,
2013-03-07 02:03:00,28.7,27.0,30.30,East,86,1.0,3.0,94,0.00,,,0.00,weatherlink.com 1.10,2013-03-07 07:03:00,
2013-03-07 02:18:00,28.6,27.0,30.30,East,96,2.0,4.0,94,0.00,,,0.00,weatherlink.com 1.10,2013-03-07 07:18:00,
2013-03-07 02:33:00,28.6,27.0,30.30,East,87,1.0,4.0,94,0.00,,,0.00,weatherlink.com 1.10,2013-03-07 07:33:00,
2013-03-07 02:48:00,28.5,27.0,30.30,East,79,0.0,4.0,94,0.00,,,0.00,weatherlink.com 1.10,2013-03-07 07:48:00,
2013-03-07 03:03:00,28.4,27.0,30.30,ESE,110,2.0,5.0,94,0.00,,,0.00,weatherlink.com 1.10,2013-03-07 08:03:00,
2013-03-07 03:18:00,28.4,27.0,30.31,ESE,108,1.0,5.0,94,0.00,,,0.00,weatherlink.com 1.10,2013-03-07 08:18:00,
2013-03-07 03:33:00,28.3,27.0,30.31,East,98,2.0,4.0,94,0.00,,,0.00,weatherlink.com 1.10,2013-03-07 08:33:00,
2013-03-07 03:49:00,28.3,27.0,30.31,East,92,0.0,4.0,94,0.00,,,0.00,weatherlink.com 1.10,2013-03-07 08:49:00,
2013-03-07 04:04:00,28.2,27.0,30.31,East,96,1.0,3.0,94,0.00,,,0.00,weatherlink.com 1.10,2013-03-07 09:04:00,
2013-03-07 04:19:00,28.1,27.0,30.32,East,99,0.0,5.0,94,0.00,,,0.00,weatherlink.com 1.10,2013-03-07 09:19:00,
2013-03-07 04:34:00,28.1,27.0,30.32,East,90,2.0,4.0,94,0.00,,,0.00,weatherlink.com 1.10,2013-03-07 09:34:00,
2013-03-07 04:49:00,28.0,27.0,30.32,ESE,115,4.0,5.0,94,0.00,,,0.00,weatherlink.com 1.10,2013-03-07 09:49:00,
2013-03-07 05:04:00,28.0,27.0,30.33,East,97,2.0,5.0,94,0.00,,,0.00,weatherlink.com 1.10,2013-03-07 10:04:00,
2013-03-07 05:19:00,28.0,27.0,30.33,ESE,115,4.0,4.0,94,0.00,,,0.00,weatherlink.com 1.10,2013-03-07 10:19:00,
2013-03-07 05:34:00,28.0,27.0,30.33,East,94,2.0,4.0,94,0.00,,,0.00,weatherlink.com 1.10,2013-03-07 10:34:00,
2013-03-07 06:04:00,28.0,27.0,30.34,ESE,105,3.0,4.0,94,0.00,,,0.00,weatherlink.com 1.10,2013-03-07 11:04:00,
2013-03-07 06:19:00,28.0,27.0,30.34,East,93,2.0,4.0,94,0.00,,,0.00,weatherlink.com 1.10,2013-03-07 11:19:00,
2013-03-07 06:34:00,28.0,27.0,30.35,ESE,108,2.0,5.0,94,0.00,,,0.00,weatherlink.com 1.10,2013-03-07 11:34:00,
2013-03-07 06:49:00,27.9,26.0,30.35,ESE,103,2.0,3.0,94,0.00,,,0.00,weatherlink.com 1.10,2013-03-07 11:49:00,
2013-03-07 07:04:00,27.9,26.0,30.36,ESE,115,3.0,4.0,94,0.00,,,0.00,weatherlink.com 1.10,2013-03-07 12:04:00,
2013-03-07 07:19:00,28.0,27.0,30.36,East,89,0.0,4.0,94,0.00,,,0.00,weatherlink.com 1.10,2013-03-07 12:19:00,
2013-03-07 07:34:00,28.0,27.0,30.36,East,94,1.0,4.0,94,0.00,,,0.00,weatherlink.com 1.10,2013-03-07 12:34:00,
2013-03-07 07:49:00,28.1,27.0,30.37,East,85,2.0,2.0,94,0.00,,,0.00,weatherlink.com 1.10,2013-03-07 12:49:00,
2013-03-07 08:04:00,28.2,27.0,30.38,East,87,2.0,3.0,94,0.00,,,0.00,weatherlink.com 1.10,2013-03-07 13:04:00,
2013-03-07 08:19:00,28.4,27.0,30.38,East,101,2.0,3.0,94,0.00,,,0.00,weatherlink.com 1.10,2013-03-07 13:19:00,
2013-03-07 08:34:00,28.7,27.0,30.39,East,94,2.0,3.0,94,0.00,,,0.00,weatherlink.com 1.10,2013-03-07 13:34:00,
2013-03-07 08:49:00,29.0,27.0,30.39,East,85,1.0,3.0,93,0.00,,,0.00,weatherlink.com 1.10,2013-03-07 13:49:00,
2013-03-07 09:04:00,29.4,28.0,30.39,East,95,1.0,3.0,93,0.00,,,0.00,weatherlink.com 1.10,2013-03-07 14:04:00,
2013-03-07 09:19:00,29.8,28.0,30.39,ENE,75,0.0,3.0,92,0.00,,,0.00,weatherlink.com 1.10,2013-03-07 14:19:00,
2013-03-07 09:34:00,30.2,28.0,30.39,East,101,2.0,4.0,92,0.00,,,0.00,weatherlink.com 1.10,2013-03-07 14:34:00,
2013-03-07 09:49:00,30.5,28.0,30.40,East,86,2.0,4.0,91,0.00,,,0.00,weatherlink.com 1.10,2013-03-07 14:49:00,
2013-03-07 10:05:00,30.7,28.0,30.40,East,84,1.0,5.0,91,0.00,,,0.00,weatherlink.com 1.10,2013-03-07 15:05:00,
2013-03-07 10:20:00,31.2,29.0,30.40,East,96,1.0,4.0,90,0.00,,,0.00,weatherlink.com 1.10,2013-03-07 15:20:00,
2013-03-07 10:35:00,31.7,29.0,30.40,ESE,103,2.0,3.0,90,0.00,,,0.00,weatherlink.com 1.10,2013-03-07 15:35:00,
2013-03-07 10:50:00,32.2,29.0,30.40,East,91,1.0,4.0,89,0.00,,,0.00,weatherlink.com 1.10,2013-03-07 15:50:00,
2013-03-07 11:05:00,32.8,29.0,30.40,ESE,102,1.0,4.0,87,0.00,,,0.00,weatherlink.com 1.10,2013-03-07 16:05:00,
2013-03-07 11:20:00,32.9,30.0,30.40,ESE,106,4.0,5.0,87,0.00,,,0.00,weatherlink.com 1.10,2013-03-07 16:20:00,
2013-03-07 11:35:00,33.3,30.0,30.40,ESE,115,4.0,4.0,87,0.00,,,0.00,weatherlink.com 1.10,2013-03-07 16:35:00,
2013-03-07 11:50:00,34.0,30.0,30.40,ENE,69,1.0,4.0,85,0.00,,,0.00,weatherlink.com 1.10,2013-03-07 16:50:00,
2013-03-07 12:05:00,34.5,31.0,30.40,East,98,1.0,4.0,85,0.00,,,0.00,weatherlink.com 1.10,2013-03-07 17:05:00,
2013-03-07 12:20:00,35.3,31.0,30.40,ESE,115,4.0,5.0,83,0.00,,,0.00,weatherlink.com 1.10,2013-03-07 17:20:00,
2013-03-07 12:35:00,35.6,31.0,30.40,East,90,1.0,5.0,82,0.01,,,0.01,weatherlink.com 1.10,2013-03-07 17:35:00,
2013-03-07 12:50:00,35.9,31.0,30.39,ESE,102,1.0,5.0,82,0.01,,,0.01,weatherlink.com 1.10,2013-03-07 17:50:00,
2013-03-07 13:05:00,35.6,30.0,30.39,East,101,0.0,6.0,81,0.02,,,0.02,weatherlink.com 1.10,2013-03-07 18:05:00,
2013-03-07 13:20:00,36.0,31.0,30.39,East,96,2.0,6.0,81,0.03,,,0.03,weatherlink.com 1.10,2013-03-07 18:20:00,
2013-03-07 13:35:00,36.5,31.0,30.38,East,95,0.0,4.0,79,0.03,,,0.04,weatherlink.com 1.10,2013-03-07 18:35:00,
2013-03-07 13:50:00,36.4,30.0,30.37,East,91,1.0,5.0,78,0.05,,,0.06,weatherlink.com 1.10,2013-03-07 18:50:00,
2013-03-07 14:05:00,36.7,30.0,30.36,East,99,2.0,4.0,78,0.05,,,0.07,weatherlink.com 1.10,2013-03-07 19:05:00,
2013-03-07 14:20:00,37.1,31.0,30.37,East,101,3.0,4.0,77,0.05,,,0.08,weatherlink.com 1.10,2013-03-07 19:20:00,
2013-03-07 14:35:00,36.6,30.0,30.37,ESE,108,1.0,4.0,77,0.04,,,0.09,weatherlink.com 1.10,2013-03-07 19:35:00,
2013-03-07 14:50:00,36.7,30.0,30.37,East,97,4.0,6.0,77,0.04,,,0.10,weatherlink.com 1.10,2013-03-07 19:50:00,
2013-03-07 15:05:00,36.8,30.0,30.37,ESE,109,3.0,4.0,76,0.03,,,0.10,weatherlink.com 1.10,2013-03-07 20:05:00,
2013-03-07 15:20:00,36.5,30.0,30.38,East,95,2.0,4.0,77,0.04,,,0.12,weatherlink.com 1.10,2013-03-07 20:20:00,
2013-03-07 15:35:00,36.3,29.0,30.38,East,96,1.0,5.0,76,0.04,,,0.13,weatherlink.com 1.10,2013-03-07 20:35:00,
2013-03-07 15:50:00,36.2,29.0,30.39,East,91,1.0,4.0,74,0.04,,,0.14,weatherlink.com 1.10,2013-03-07 20:50:00,
2013-03-07 16:05:00,36.0,27.0,30.39,ESE,115,5.0,6.0,71,0.05,,,0.15,weatherlink.com 1.10,2013-03-07 21:05:00,
2013-03-07 16:20:00,35.7,27.0,30.39,East,97,1.0,3.0,70,0.04,,,0.16,weatherlink.com 1.10,2013-03-07 21:20:00,
2013-03-07 16:35:00,35.5,27.0,30.39,ESE,103,1.0,5.0,71,0.04,,,0.17,weatherlink.com 1.10,2013-03-07 21:35:00,
2013-03-07 16:50:00,36.1,26.0,30.38,East,97,1.0,1.0,68,0.03,,,0.17,weatherlink.com 1.10,2013-03-07 21:50:00,
2013-03-07 17:05:00,35.9,27.0,30.39,East,84,0.0,3.0,70,0.03,,,0.18,weatherlink.com 1.10,2013-03-07 22:05:00,
2013-03-07 17:20:00,35.4,27.0,30.39,East,88,1.0,2.0,71,0.02,,,0.18,weatherlink.com 1.10,2013-03-07 22:20:00,
2013-03-07 17:35:00,35.3,27.0,30.39,East,97,2.0,2.0,72,0.02,,,0.19,weatherlink.com 1.10,2013-03-07 22:35:00,
2013-03-07 17:50:00,34.8,27.0,30.39,ESE,103,1.0,3.0,73,0.02,,,0.19,weatherlink.com 1.10,2013-03-07 22:50:00,
2013-03-07 18:05:00,34.7,27.0,30.39,East,95,0.0,2.0,74,0.02,,,0.20,weatherlink.com 1.10,2013-03-07 23:05:00,
2013-03-07 18:20:00,34.4,27.0,30.40,East,94,0.0,1.0,74,0.01,,,0.20,weatherlink.com 1.10,2013-03-07 23:20:00,
2013-03-07 18:35:00,34.1,27.0,30.40,East,93,1.0,1.0,75,0.01,,,0.20,weatherlink.com 1.10,2013-03-07 23:35:00,
2013-03-07 18:50:00,33.9,27.0,30.40,East,95,1.0,3.0,75,0.01,,,0.20,weatherlink.com 1.10,2013-03-07 23:50:00,
2013-03-07 19:05:00,33.7,28.0,30.41,East,101,1.0,2.0,78,0.00,,,0.20,weatherlink.com 1.10,2013-03-08 00:05:00,
2013-03-07 19:20:00,33.5,27.0,30.41,East,101,0.0,1.0,77,0.00,,,0.20,weatherlink.com 1.10,2013-03-08 00:20:00,
2013-03-07 19:35:00,33.3,26.0,30.41,East,95,0.0,1.0,75,0.00,,,0.20,weatherlink.com 1.10,2013-03-08 00:35:00,
2013-03-07 19:50:00,33.3,27.0,30.41,East,91,0.0,1.0,77,0.00,,,0.20,weatherlink.com 1.10,2013-03-08 00:50:00,
2013-03-07 20:05:00,33.1,27.0,30.41,East,92,0.0,1.0,78,0.00,,,0.20,weatherlink.com 1.10,2013-03-08 01:05:00,
2013-03-07 20:20:00,32.9,27.0,30.41,East,94,0.0,1.0,78,0.01,,,0.21,weatherlink.com 1.10,2013-03-08 01:20:00,
2013-03-07 20:35:00,32.7,26.0,30.41,East,97,0.0,1.0,77,0.01,,,0.21,weatherlink.com 1.10,2013-03-08 01:35:00,
2013-03-07 20:50:00,31.8,25.0,30.40,East,97,0.0,0.0,77,0.01,,,0.21,weatherlink.com 1.10,2013-03-08 01:50:00,
2013-03-07 21:05:00,31.0,26.0,30.41,East,98,0.0,0.0,81,0.01,,,0.21,weatherlink.com 1.10,2013-03-08 02:05:00,
2013-03-07 21:20:00,29.9,25.0,30.40,East,98,0.0,0.0,82,0.00,,,0.21,weatherlink.com 1.10,2013-03-08 02:20:00,
2013-03-07 21:35:00,29.0,24.0,30.40,East,98,0.0,0.0,82,0.00,,,0.21,weatherlink.com 1.10,2013-03-08 02:35:00,
2013-03-07 21:50:00,28.6,25.0,30.41,East,97,0.0,0.0,85,0.00,,,0.21,weatherlink.com 1.10,2013-03-08 02:50:00,
2013-03-07 22:20:00,28.7,25.0,30.41,East,96,0.0,0.0,87,0.00,,,0.21,weatherlink.com 1.10,2013-03-08 03:20:00,
2013-03-07 22:35:00,28.2,25.0,30.41,East,96,0.0,0.0,88,0.00,,,0.21,weatherlink.com 1.10,2013-03-08 03:35:00,
2013-03-07 22:50:00,27.5,24.0,30.41,East,96,0.0,0.0,88,0.00,,,0.21,weatherlink.com 1.10,2013-03-08 03:50:00,
2013-03-07 23:06:00,26.9,24.0,30.41,East,96,0.0,0.0,89,0.00,,,0.21,weatherlink.com 1.10,2013-03-08 04:06:00,
2013-03-07 23:21:00,26.4,24.0,30.41,East,96,0.0,0.0,89,0.00,,,0.21,weatherlink.com 1.10,2013-03-08 04:21:00,
2013-03-07 23:36:00,26.4,24.0,30.42,East,96,0.0,0.0,91,0.00,,,0.21,weatherlink.com 1.10,2013-03-08 04:36:00,
2013-03-07 23:51:00,26.0,24.0,30.42,East,96,0.0,0.0,91,0.00,,,0.21,weatherlink.com 1.10,2013-03-08 04:51:00,